Location: Fort Wayne
(41.1310°N, 85.1290°W)
Time: 19:49:35
(UTC-05:00)

Cosmos 2219 Rocket - Visible Passes

Search period start: 21 February 2018 00:00
Search period end: 03 March 2018 00:00
Orbit: 826 x 848 km, 71.0° (Epoch: 20 February)

Date Brightness Start Highest point End Pass type
(mag) Time Alt. Az. Time Alt. Az. Time Alt. Az.
26 Feb 4.5 06:38:19 10° SSE 06:43:09 30° ESE 06:48:03 10° NE visible
26 Feb 6.0 19:02:46 10° W 19:03:24 10° W 19:04:02 10° WSW visible
27 Feb 4.5 06:22:07 10° SSE 06:26:51 28° ESE 06:31:35 10° NE visible
28 Feb 4.6 06:05:57 10° SSE 06:10:31 26° ESE 06:15:07 10° NE visible
01 Mar 4.7 05:49:48 10° SSE 05:54:13 24° E 05:58:38 10° NE visible
02 Mar 4.7 05:33:40 10° SSE 05:37:54 22° E 05:42:08 10° NE visible
